CW3065 Weather Reports


time (UTC)temp
C
wind
direction
speed
KPH
gust
KPH
rain 1hr
cm
rain 24hr
cm
rain mn
cm
humidity
%
barometer
mb
20260504215004 12 25 16.1 33.8 0.03 0.03 0.03 47 1001.0
20260504214503 12 25 16.1 29.0 0.03 0.03 0.03 46 1001.0
20260504214004 12 0 19.3 32.2 0.03 0.03 0.03 43 1001.0
20260504213003 12 76 8.0 16.1 0.03 0.03 0.03 46 1001.1
20260504212503 12 61 6.4 19.3 0.03 0.03 0.03 48 1001.0
20260504212004 12 114 14.5 22.5 0.03 0.03 0.03 50 1000.9
20260504211504 12 89 8.0 19.3 0.03 0.03 0.03 52 1001.0
20260504211004 11 130 3.2 11.3 0.03 0.03 0.03 52 1001.4
20260504210504 11 140 9.7 16.1 0.03 0.03 0.03 55 1001.4
20260504210004 11 120 8.0 11.3 0.03 0.03 0.03 58 1001.4
20260504205004 10 175 1.6 4.8 0.00 0.00 0.00 55 1001.2
20260504204503 10 186 3.2 14.5 0.00 0.00 0.00 52 1001.5
20260504204004 10 162 4.8 8.0 0.00 0.00 0.00 56 1001.7
20260504203504 10 199 8.0 9.7 0.00 0.00 0.00 54 1001.7
20260504203003 10 186 0.0 4.8 0.00 0.00 0.00 54 1001.7
20260504202504 10 186 3.2 4.8 0.00 0.00 0.00 54 1001.7
20260504202004 10 172 6.4 8.0 0.00 0.00 0.00 54 1001.7
20260504201504 10 177 3.2 9.7 0.00 0.00 0.00 59 1001.5
20260504201004 10 211 11.3 16.1 0.00 0.00 0.00 62 1001.6
20260504200504 10 132 4.8 8.0 0.00 0.00 0.00 63 1001.7
20260504200004 9 65 3.2 8.0 0.00 0.00 0.00 60 1001.7
20260504195503 8 207 1.6 4.8 0.00 0.00 0.00 60 1001.7
20260504195003 8 205 8.0 11.3 0.00 0.00 0.00 61 1001.9
20260504194003 9 207 9.7 14.5 0.00 0.00 0.00 59 1002.2
20260504193504 9 200 6.4 14.5 0.00 0.00 0.00 61 1002.1
20260504193004 9 215 4.8 4.8 0.00 0.00 0.00 60 1002.0
20260504192504 9 121 3.2 4.8 0.00 0.00 0.00 62 1002.0
20260504192004 10 121 3.2 4.8 0.00 0.00 0.00 56 1002.2
20260504191504 10 97 3.2 4.8 0.00 0.00 0.00 52 1002.1
20260504191003 10 75 4.8 8.0 0.00 0.00 0.00 52 1002.1
20260504190504 10 58 3.2 11.3 0.00 0.00 0.00 52 1002.1
20260504190003 10 103 8.0 14.5 0.00 0.00 0.00 50 1002.0
20260504185504 11 31 6.4 9.7 0.00 0.00 0.00 49 1002.1
20260504185004 11 67 6.4 11.3 0.00 0.00 0.00 49 1001.6
20260504184504 11 40 8.0 14.5 0.00 0.00 0.00 53 1001.6
20260504184004 10 30 8.0 12.9 0.00 0.00 0.00 57 1001.7
20260504183504 10 26 4.8 8.0 0.00 0.00 0.00 54 1001.9
20260504183004 10 325 6.4 16.1 0.00 0.00 0.00 48 1002.0
20260504182504 10 0 11.3 25.7 0.00 0.00 0.00 47 1002.2
20260504182003 11 352 19.3 45.1 0.00 0.00 0.00 45 1002.2
20260504181503 12 273 14.5 40.2 0.00 0.00 0.00 42 1002.0
20260504181004 12 286 14.5 25.7 0.00 0.00 0.00 39 1002.0
20260504180003 13 321 4.8 11.3 0.00 0.00 0.00 37 1001.7
20260504175504 12 290 0.0 9.7 0.00 0.00 0.00 36 1001.7
20260504174504 12 226 12.9 19.3 0.00 0.00 0.00 38 1001.9
20260504174003 12 277 1.6 4.8 0.00 0.00 0.00 38 1001.8
20260504173504 12 277 4.8 19.3 0.00 0.00 0.00 38 1002.0
20260504173004 12 259 12.9 22.5 0.00 0.00 0.00 41 1002.1
20260504172504 12 246 14.5 22.5 0.00 0.00 0.00 39 1002.0
20260504172003 12 233 16.1 25.7 0.00 0.00 0.00 38 1002.0
20260504171504 12 237 17.7 32.2 0.00 0.00 0.00 38 1002.0
20260504171003 12 238 11.3 24.1 0.00 0.00 0.00 37 1002.0
20260504170504 12 240 12.9 22.5 0.00 0.00 0.00 38 1002.1
20260504150504 11 234 9.7 20.9 0.00 0.00 0.00 34 1002.3
20260504140504 4 256 3.2 4.8 0.00 0.00 0.00 57 1002.4
20260504130504 -1 256 8.0 8.0 0.00 0.00 0.00 62 1002.6
20260504110504 -2 256 0.0 1.6 0.00 0.00 0.00 66 1002.5
20260504100504 -1 256 0.0 0.0 0.00 0.00 0.00 62 1002.6
20260504082004 0 256 0.0 0.0 0.00 0.00 0.00 60 1003.7
20260504081503 0 256 0.0 3.2 0.00 0.00 0.00 60 1003.7
20260504081004 -1 256 1.6 4.8 0.00 0.00 0.00 60 1003.8
20260504080504 -1 256 1.6 3.2 0.00 0.00 0.00 60 1003.9
20260504050503 2 256 0.0 0.0 0.00 0.00 0.00 54 1004.5
20260504050004 2 256 0.0 0.0 0.00 0.00 0.00 55 1004.6
20260504045004 3 256 0.0 0.0 0.00 0.00 0.00 53 1004.6
20260504044504 3 256 0.0 0.0 0.00 0.00 0.00 53 1004.6
20260504043503 3 256 1.6 4.8 0.00 0.00 0.00 52 1004.7
20260504043004 3 256 4.8 4.8 0.00 0.00 0.00 52 1004.7
20260504042504 3 256 0.0 4.8 0.00 0.00 0.00 52 1004.7
20260504041504 3 256 1.6 8.0 0.00 0.00 0.00 51 1004.8
20260504041004 3 256 3.2 4.8 0.00 0.00 0.00 50 1004.9
20260504040503 4 256 1.6 4.8 0.00 0.00 0.00 51 1004.9
20260504040003 4 256 1.6 4.8 0.00 0.00 0.00 50 1005.0
20260504035003 5 256 0.0 4.8 0.00 0.00 0.00 49 1004.8
20260504034504 5 256 3.2 4.8 0.00 0.00 0.00 49 1004.8
20260504033504 5 256 4.8 8.0 0.00 0.00 0.00 47 1004.8
20260504033003 6 256 0.0 4.8 0.00 0.00 0.00 47 1004.7
20260504032503 6 256 0.0 0.0 0.00 0.00 0.00 46 1004.6
20260504031504 6 256 0.0 0.0 0.00 0.00 0.00 45 1004.6
20260504031003 6 256 0.0 0.0 0.00 0.00 0.00 45 1004.5
20260504030503 6 256 0.0 4.8 0.00 0.00 0.00 44 1004.5
20260504030004 7 256 3.2 4.8 0.00 0.00 0.00 43 1004.5
20260504025503 7 256 3.2 8.0 0.00 0.00 0.00 44 1004.4
20260504025005 7 256 0.0 0.0 0.00 0.00 0.00 43 1004.4
20260504024503 7 256 3.2 4.8 0.00 0.00 0.00 42 1004.3
20260504024003 8 256 1.6 4.8 0.00 0.00 0.00 41 1004.3
20260504023503 8 256 4.8 4.8 0.00 0.00 0.00 41 1004.2
20260504023004 8 256 3.2 4.8 0.00 0.00 0.00 39 1004.2
20260504022504 9 256 0.0 0.0 0.00 0.00 0.00 39 1004.1
20260504022003 9 256 0.0 3.2 0.00 0.00 0.00 38 1004.1
20260504021004 10 256 0.0 3.2 0.00 0.00 0.00 37 1004.0
20260504020004 11 256 0.0 0.0 0.00 0.00 0.00 34 1003.9
20260504015504 11 256 0.0 0.0 0.00 0.00 0.00 33 1003.8
20260504015004 11 256 0.0 0.0 0.00 0.00 0.00 32 1003.7
20260504014504 11 256 0.0 0.0 0.00 0.00 0.00 33 1003.3
20260504014004 12 256 0.0 0.0 0.00 0.00 0.00 31 1003.3
20260504013504 12 256 0.0 0.0 0.00 0.00 0.00 31 1003.2
20260504013004 12 256 0.0 0.0 0.00 0.00 0.00 31 1003.3
20260504012504 12 256 0.0 0.0 0.00 0.00 0.00 31 1003.3
20260504012004 12 256 0.0 4.8 0.00 0.00 0.00 31 1003.3
20260504011503 12 256 4.8 8.0 0.00 0.00 0.00 31 1003.4
20260504011003 12 256 4.8 8.0 0.00 0.00 0.00 31 1003.4
20260504010504 12 246 4.8 11.3 0.00 0.00 0.00 30 1003.4
20260504010004 12 237 8.0 14.5 0.00 0.00 0.00 30 1003.3
20260504005504 12 235 3.2 9.7 0.00 0.00 0.00 30 1003.4
20260504005004 12 255 11.3 24.1 0.00 0.00 0.00 30 1003.6
20260504004503 13 246 14.5 22.5 0.00 0.00 0.00 30 1003.5
20260504004004 13 263 6.4 25.7 0.00 0.00 0.00 30 1003.5
20260504003504 13 234 19.3 25.7 0.00 0.00 0.00 29 1003.5
20260504003004 13 261 20.9 33.8 0.00 0.00 0.00 29 1003.6
20260504002503 13 244 17.7 32.2 0.00 0.00 0.00 30 1003.5
20260504002004 13 249 19.3 32.2 0.00 0.00 0.00 30 1003.7
20260504001504 13 245 16.1 32.2 0.00 0.00 0.00 30 1003.9
20260504001004 13 246 17.7 27.4 0.00 0.00 0.00 30 1003.8
20260504000504 13 250 19.3 32.2 0.00 0.00 0.00 29 1003.8
20260504000004 13 237 16.1 32.2 0.00 0.00 0.00 29 1003.8
20260503235503 13 238 16.1 38.6 0.00 0.00 0.00 28 1003.9
20260503235003 14 243 19.3 32.2 0.00 0.00 0.00 26 1004.0
20260503234504 15 232 20.9 32.2 0.00 0.00 0.00 24 1003.8
20260503234004 16 273 8.0 25.7 0.00 0.00 0.00 20 1003.9
20260503233503 16 274 16.1 27.4 0.00 0.00 0.00 20 1003.8
20260503233004 15 272 14.5 32.2 0.00 0.00 0.00 21 1003.9
20260503232504 15 261 4.8 16.1 0.00 0.00 0.00 23 1003.8
20260503232004 15 297 4.8 12.9 0.00 0.00 0.00 24 1003.9
20260503231504 15 243 4.8 16.1 0.00 0.00 0.00 23 1003.5
20260503231004 15 28 3.2 22.5 0.00 0.00 0.00 23 1003.6
20260503230503 15 337 9.7 16.1 0.00 0.00 0.00 23 1003.8
20260503230004 15 148 4.8 14.5 0.00 0.00 0.00 22 1003.8
20260503225503 15 180 9.7 20.9 0.00 0.00 0.00 24 1004.0
20260503224504 13 245 14.5 29.0 0.00 0.00 0.00 26 1004.0
20260503224004 14 246 29.0 41.8 0.00 0.00 0.00 25 1004.1
20260503223504 14 255 17.7 24.1 0.00 0.00 0.00 25 1004.1
20260503223004 15 231 17.7 32.2 0.00 0.00 0.00 24 1003.9
20260503222504 15 233 20.9 33.8 0.00 0.00 0.00 23 1003.8
20260503221004 15 241 4.8 29.0 0.00 0.00 0.00 18 1004.2
20260503220004 16 242 12.9 19.3 0.00 0.00 0.00 17 1004.2
20260503215504 16 261 4.8 9.7 0.00 0.00 0.00 17 1004.2